Time,TemperatureF,DewpointF,PressureIn,WindDirection,WindDirectionDegrees,WindSpeedMPH,WindSpeedGustMPH,Humidity,HourlyPrecipIn,Conditions,Clouds,dailyrainin,SoftwareType,DateUTC
2013-03-22 00:01:00,67.6,19.9,29.62,North,0,9.0,0.0,16,0.00,,BKN250,0.00,VWS V14.01,2013-03-22 06:01:00,
2013-03-22 00:06:00,67.4,19.7,29.62,North,0,3.0,0.0,16,0.00,,BKN250,0.00,VWS V14.01,2013-03-22 06:06:00,
2013-03-22 00:11:00,66.9,20.7,29.62,North,0,1.5,0.0,17,0.00,,BKN250,0.00,VWS V14.01,2013-03-22 06:11:00,
2013-03-22 00:16:00,66.6,20.5,29.62,West,260,3.0,0.0,17,0.00,,BKN250,0.00,VWS V14.01,2013-03-22 06:16:00,
2013-03-22 00:21:00,66.1,20.0,29.62,SW,234,3.0,0.0,17,0.00,,BKN250,0.00,VWS V14.01,2013-03-22 06:21:00,
2013-03-22 00:26:00,65.6,21.0,29.62,SW,233,4.5,0.0,18,0.00,,BKN250,0.00,VWS V14.01,2013-03-22 06:26:00,
2013-03-22 00:31:00,65.3,22.0,29.62,North,0,3.0,0.0,19,0.00,,BKN250,0.00,VWS V14.01,2013-03-22 06:31:00,
2013-03-22 00:36:00,64.8,20.3,29.62,North,0,0.0,0.0,18,0.00,,BKN250,0.00,VWS V14.01,2013-03-22 06:36:00,
2013-03-22 00:41:00,64.3,19.9,29.62,North,0,3.0,0.0,18,0.00,,BKN250,0.00,VWS V14.01,2013-03-22 06:41:00,
2013-03-22 00:46:00,63.9,22.1,29.62,North,0,1.5,0.0,20,0.00,,BKN250,0.00,VWS V14.01,2013-03-22 06:46:00,
2013-03-22 00:51:00,63.5,21.7,29.62,SW,234,3.0,0.0,20,0.00,,BKN250,0.00,VWS V14.01,2013-03-22 06:51:00,
2013-03-22 00:56:00,63.1,23.7,29.62,SW,234,1.5,0.0,22,0.00,,BKN250,0.00,VWS V14.01,2013-03-22 06:56:00,
2013-03-22 01:01:00,62.7,21.1,29.62,SW,234,0.0,0.0,20,0.00,,BKN250,0.00,VWS V14.01,2013-03-22 07:01:00,
2013-03-22 01:06:00,62.3,24.1,29.62,SW,234,1.5,0.0,23,0.00,,BKN250,0.00,VWS V14.01,2013-03-22 07:06:00,
2013-03-22 01:11:00,61.8,21.5,29.62,SW,220,1.5,0.0,21,0.00,,BKN250,0.00,VWS V14.01,2013-03-22 07:11:00,
2013-03-22 01:16:00,61.6,21.3,29.63,SW,220,0.0,0.0,21,0.00,,BKN250,0.00,VWS V14.01,2013-03-22 07:16:00,
2013-03-22 01:21:00,61.2,22.1,29.63,SW,220,0.0,0.0,22,0.00,,BKN250,0.00,VWS V14.01,2013-03-22 07:21:00,
2013-03-22 01:26:00,60.7,21.7,29.63,SW,220,1.5,0.0,22,0.00,,BKN250,0.00,VWS V14.01,2013-03-22 07:26:00,
2013-03-22 01:31:00,60.2,22.3,29.63,SW,220,0.0,0.0,23,0.00,,BKN250,0.00,VWS V14.01,2013-03-22 07:31:00,
2013-03-22 01:36:00,59.9,23.0,29.63,SW,220,0.0,0.0,24,0.00,,BKN250,0.00,VWS V14.01,2013-03-22 07:36:00,
2013-03-22 01:41:00,59.5,21.7,29.63,SW,221,0.0,0.0,23,0.00,,BKN250,0.00,VWS V14.01,2013-03-22 07:41:00,
2013-03-22 01:46:00,59.2,22.5,29.63,SW,221,0.0,0.0,24,0.00,,BKN250,0.00,VWS V14.01,2013-03-22 07:46:00,
2013-03-22 01:51:00,58.9,23.2,29.63,SW,221,0.0,0.0,25,0.00,,BKN250,0.00,VWS V14.01,2013-03-22 07:51:00,
2013-03-22 01:56:00,58.6,22.9,29.63,SW,221,1.5,0.0,25,0.00,,BKN250,0.00,VWS V14.01,2013-03-22 07:56:00,
2013-03-22 02:01:00,58.4,22.7,29.62,North,0,3.0,0.0,25,0.00,,BKN250,0.00,VWS V14.01,2013-03-22 08:01:00,
2013-03-22 02:06:00,58.4,21.8,29.62,North,0,1.5,0.0,24,0.00,,BKN250,0.00,VWS V14.01,2013-03-22 08:06:00,
2013-03-22 02:11:00,58.4,22.7,29.62,North,0,0.0,0.0,25,0.00,,BKN250,0.00,VWS V14.01,2013-03-22 08:11:00,
2013-03-22 02:16:00,58.4,21.8,29.63,North,0,1.5,0.0,24,0.00,,BKN250,0.00,VWS V14.01,2013-03-22 08:16:00,
2013-03-22 02:21:00,58.4,23.7,29.63,North,0,0.0,0.0,26,0.00,,BKN250,0.00,VWS V14.01,2013-03-22 08:21:00,
2013-03-22 02:26:00,58.3,22.6,29.63,North,0,1.5,0.0,25,0.00,,BKN250,0.00,VWS V14.01,2013-03-22 08:26:00,
2013-03-22 02:31:00,58.3,21.7,29.63,North,0,1.5,0.0,24,0.00,,BKN250,0.00,VWS V14.01,2013-03-22 08:31:00,
2013-03-22 02:36:00,58.3,20.7,29.63,North,0,1.5,0.0,23,0.00,,BKN250,0.00,VWS V14.01,2013-03-22 08:36:00,
2013-03-22 02:41:00,58.3,20.7,29.63,North,0,1.5,0.0,23,0.00,,BKN250,0.00,VWS V14.01,2013-03-22 08:41:00,
2013-03-22 02:46:00,58.3,19.6,29.63,North,0,3.0,0.0,22,0.00,,BKN250,0.00,VWS V14.01,2013-03-22 08:46:00,
2013-03-22 02:51:00,58.4,19.7,29.63,North,0,4.5,0.0,22,0.00,,BKN250,0.00,VWS V14.01,2013-03-22 08:51:00,
2013-03-22 02:57:00,58.7,20.0,29.63,North,0,3.0,0.0,22,0.00,,BKN250,0.00,VWS V14.01,2013-03-22 08:57:00,
2013-03-22 03:02:00,58.9,19.1,29.62,North,0,4.5,0.0,21,0.00,,BKN250,0.00,VWS V14.01,2013-03-22 09:02:00,
2013-03-22 03:07:00,59.2,19.3,29.62,North,0,3.0,0.0,21,0.00,,BKN250,0.00,VWS V14.01,2013-03-22 09:07:00,
2013-03-22 03:12:00,59.2,19.3,29.62,North,0,1.5,0.0,21,0.00,,BKN250,0.00,VWS V14.01,2013-03-22 09:12:00,
2013-03-22 03:17:00,59.2,20.4,29.62,North,0,1.5,0.0,22,0.00,,BKN250,0.00,VWS V14.01,2013-03-22 09:17:00,
2013-03-22 03:22:00,58.9,20.1,29.62,North,0,1.5,0.0,22,0.00,,BKN250,0.00,VWS V14.01,2013-03-22 09:22:00,
2013-03-22 03:27:00,58.6,19.9,29.62,North,0,3.0,0.0,22,0.00,,BKN250,0.00,VWS V14.01,2013-03-22 09:27:00,
2013-03-22 03:32:00,58.3,19.6,29.61,North,0,1.5,0.0,22,0.00,,BKN250,0.00,VWS V14.01,2013-03-22 09:32:00,
2013-03-22 03:37:00,58.0,20.4,29.61,North,0,3.0,0.0,23,0.00,,BKN250,0.00,VWS V14.01,2013-03-22 09:37:00,
2013-03-22 03:42:00,57.8,20.3,29.61,North,0,0.0,0.0,23,0.00,,BKN250,0.00,VWS V14.01,2013-03-22 09:42:00,
2013-03-22 03:47:00,57.6,21.1,29.61,SW,221,1.5,0.0,24,0.00,,BKN250,0.00,VWS V14.01,2013-03-22 09:47:00,
2013-03-22 03:52:00,57.5,20.0,29.61,North,0,1.5,0.0,23,0.00,,BKN250,0.00,VWS V14.01,2013-03-22 09:52:00,
2013-03-22 03:57:00,57.6,20.1,29.61,North,0,3.0,0.0,23,0.00,,BKN250,0.00,VWS V14.01,2013-03-22 09:57:00,
2013-03-22 04:02:00,57.6,20.1,29.61,North,0,4.5,0.0,23,0.00,,BKN250,0.00,VWS V14.01,2013-03-22 10:02:00,
2013-03-22 04:07:00,57.6,20.1,29.61,North,0,1.5,0.0,23,0.00,,BKN250,0.00,VWS V14.01,2013-03-22 10:07:00,
2013-03-22 04:12:00,57.6,20.1,29.61,North,0,3.0,0.0,23,0.00,,BKN250,0.00,VWS V14.01,2013-03-22 10:12:00,
2013-03-22 04:17:00,57.5,20.0,29.61,North,0,4.5,0.0,23,0.00,,BKN250,0.00,VWS V14.01,2013-03-22 10:17:00,
2013-03-22 04:22:00,57.5,20.0,29.61,North,0,4.5,0.0,23,0.00,,BKN250,0.00,VWS V14.01,2013-03-22 10:22:00,
2013-03-22 04:27:00,57.3,20.8,29.61,North,0,3.0,0.0,24,0.00,,BKN250,0.00,VWS V14.01,2013-03-22 10:27:00,
2013-03-22 04:32:00,57.3,20.8,29.61,North,0,1.5,0.0,24,0.00,,BKN250,0.00,VWS V14.01,2013-03-22 10:32:00,
2013-03-22 04:37:00,57.3,19.8,29.61,North,0,3.0,0.0,23,0.00,,BKN250,0.00,VWS V14.01,2013-03-22 10:37:00,
2013-03-22 04:42:00,57.5,20.0,29.61,North,0,3.0,0.0,23,0.00,,BKN250,0.00,VWS V14.01,2013-03-22 10:42:00,
2013-03-22 04:47:00,57.3,20.8,29.61,North,0,1.5,0.0,24,0.00,,BKN250,0.00,VWS V14.01,2013-03-22 10:47:00,
2013-03-22 04:52:00,57.0,20.6,29.61,North,0,1.5,0.0,24,0.00,,BKN250,0.00,VWS V14.01,2013-03-22 10:52:00,
2013-03-22 04:57:00,56.9,21.5,29.61,North,0,1.5,0.0,25,0.00,,BKN270,0.00,VWS V14.01,2013-03-22 10:57:00,
2013-03-22 05:02:00,56.6,22.1,29.61,SW,220,3.0,0.0,26,0.00,,BKN270,0.00,VWS V14.01,2013-03-22 11:02:00,
2013-03-22 05:07:00,56.5,21.1,29.61,SW,220,1.5,0.0,25,0.00,,BKN270,0.00,VWS V14.01,2013-03-22 11:07:00,
2013-03-22 05:12:00,56.3,21.9,29.61,SW,220,4.5,0.0,26,0.00,,BKN270,0.00,VWS V14.01,2013-03-22 11:12:00,
2013-03-22 05:17:00,56.2,21.8,29.61,North,0,3.0,0.0,26,0.00,,BKN270,0.00,VWS V14.01,2013-03-22 11:17:00,
2013-03-22 05:22:00,56.2,20.9,29.61,North,0,3.0,0.0,25,0.00,,BKN270,0.00,VWS V14.01,2013-03-22 11:22:00,
2013-03-22 05:27:00,56.2,20.9,29.61,North,0,1.5,0.0,25,0.00,,BKN270,0.00,VWS V14.01,2013-03-22 11:27:00,
2013-03-22 05:32:00,56.2,20.9,29.62,SW,220,3.0,0.0,25,0.00,,BKN270,0.00,VWS V14.01,2013-03-22 11:32:00,
2013-03-22 05:37:00,56.2,20.9,29.62,North,0,3.0,0.0,25,0.00,,BKN270,0.00,VWS V14.01,2013-03-22 11:37:00,
2013-03-22 05:42:00,56.3,21.9,29.62,North,0,4.5,0.0,26,0.00,,BKN270,0.00,VWS V14.01,2013-03-22 11:42:00,
2013-03-22 05:47:00,56.3,21.0,29.62,North,0,3.0,0.0,25,0.00,,BKN270,0.00,VWS V14.01,2013-03-22 11:47:00,
2013-03-22 05:52:00,56.3,21.0,29.62,North,0,4.5,0.0,25,0.00,,BKN270,0.00,VWS V14.01,2013-03-22 11:52:00,
2013-03-22 05:57:00,56.5,21.1,29.62,North,0,3.0,0.0,25,0.00,,BKN250,0.00,VWS V14.01,2013-03-22 11:57:00,
2013-03-22 06:02:00,56.5,21.1,29.63,North,0,4.5,0.0,25,0.00,,BKN250,0.00,VWS V14.01,2013-03-22 12:02:00,
2013-03-22 06:07:00,56.6,21.2,29.63,North,0,6.0,0.0,25,0.00,,BKN250,0.00,VWS V14.01,2013-03-22 12:07:00,
2013-03-22 06:12:00,56.6,21.2,29.63,North,0,1.5,0.0,25,0.00,,BKN250,0.00,VWS V14.01,2013-03-22 12:12:00,
2013-03-22 06:17:00,56.7,21.3,29.63,North,0,7.5,0.0,25,0.00,,BKN250,0.00,VWS V14.01,2013-03-22 12:17:00,
2013-03-22 06:22:00,56.7,21.3,29.63,North,0,7.5,0.0,25,0.00,,BKN250,0.00,VWS V14.01,2013-03-22 12:22:00,
2013-03-22 06:27:00,56.7,21.3,29.63,North,0,3.0,0.0,25,0.00,,BKN250,0.00,VWS V14.01,2013-03-22 12:27:00,
2013-03-22 06:32:00,56.7,21.3,29.63,North,0,4.5,0.0,25,0.00,,BKN250,0.00,VWS V14.01,2013-03-22 12:32:00,
2013-03-22 06:37:00,56.9,21.5,29.63,North,0,0.0,0.0,25,0.00,,BKN250,0.00,VWS V14.01,2013-03-22 12:37:00,
2013-03-22 06:42:00,56.6,22.1,29.63,North,0,3.0,0.0,26,0.00,,BKN250,0.00,VWS V14.01,2013-03-22 12:42:00,
2013-03-22 06:47:00,56.2,22.7,29.64,North,0,1.5,0.0,27,0.00,,BKN250,0.00,VWS V14.01,2013-03-22 12:47:00,
2013-03-22 06:52:00,55.6,22.2,29.64,North,0,1.5,0.0,27,0.00,,BKN250,0.00,VWS V14.01,2013-03-22 12:52:00,
2013-03-22 06:57:00,55.1,21.7,29.64,North,0,0.0,0.0,27,0.00,,BKN300,0.00,VWS V14.01,2013-03-22 12:57:00,
2013-03-22 07:02:00,54.8,22.3,29.64,North,0,1.5,0.0,28,0.00,,BKN300,0.00,VWS V14.01,2013-03-22 13:02:00,
2013-03-22 07:07:00,54.5,21.2,29.64,North,0,3.0,0.0,27,0.00,,BKN300,0.00,VWS V14.01,2013-03-22 13:07:00,
2013-03-22 07:12:00,54.2,22.6,29.64,North,0,4.5,0.0,29,0.00,,BKN300,0.00,VWS V14.01,2013-03-22 13:12:00,
2013-03-22 07:17:00,54.2,23.5,29.65,North,0,1.5,0.0,30,0.00,,BKN300,0.00,VWS V14.01,2013-03-22 13:17:00,
2013-03-22 07:22:00,54.2,23.5,29.65,North,0,1.5,0.0,30,0.00,,BKN300,0.00,VWS V14.01,2013-03-22 13:22:00,
2013-03-22 07:27:00,54.2,24.2,29.65,North,0,1.5,0.0,31,0.00,,BKN300,0.00,VWS V14.01,2013-03-22 13:27:00,
2013-03-22 07:32:00,54.4,24.4,29.65,West,275,1.5,0.0,31,0.00,,BKN300,0.00,VWS V14.01,2013-03-22 13:32:00,
2013-03-22 07:37:00,55.0,22.5,29.65,West,275,3.0,0.0,28,0.00,,BKN300,0.00,VWS V14.01,2013-03-22 13:37:00,
2013-03-22 07:42:00,55.6,23.0,29.65,West,274,1.5,0.0,28,0.00,,BKN300,0.00,VWS V14.01,2013-03-22 13:42:00,
2013-03-22 07:47:00,56.3,23.6,29.66,West,271,4.5,0.0,28,0.00,,BKN300,0.00,VWS V14.01,2013-03-22 13:47:00,
2013-03-22 07:52:00,57.2,23.5,29.66,North,0,3.0,0.0,27,0.00,,BKN300,0.00,VWS V14.01,2013-03-22 13:52:00,
2013-03-22 07:57:00,58.3,23.6,29.66,North,0,4.5,0.0,26,0.00,,BKN250,0.00,VWS V14.01,2013-03-22 13:57:00,
2013-03-22 08:02:00,59.0,24.2,29.66,West,264,0.0,0.0,26,0.00,,BKN250,0.00,VWS V14.01,2013-03-22 14:02:00,
2013-03-22 08:07:00,59.5,23.7,29.66,SW,235,3.0,0.0,25,0.00,,BKN250,0.00,VWS V14.01,2013-03-22 14:07:00,
2013-03-22 08:12:00,59.8,23.0,29.66,North,0,7.5,0.0,24,0.00,,BKN250,0.00,VWS V14.01,2013-03-22 14:12:00,
2013-03-22 08:17:00,59.9,23.0,29.66,North,0,6.0,0.0,24,0.00,,BKN250,0.00,VWS V14.01,2013-03-22 14:17:00,
2013-03-22 08:22:00,60.1,22.2,29.66,SW,232,7.5,0.0,23,0.00,,BKN250,0.00,VWS V14.01,2013-03-22 14:22:00,
2013-03-22 08:27:00,60.1,25.1,29.66,North,0,4.5,0.0,26,0.00,,BKN250,0.00,VWS V14.01,2013-03-22 14:27:00,
2013-03-22 08:32:00,59.5,21.7,29.67,North,0,3.0,0.0,23,0.00,,BKN250,0.00,VWS V14.01,2013-03-22 14:32:00,
2013-03-22 08:37:00,59.2,22.5,29.67,North,0,4.5,0.0,24,0.00,,BKN250,0.00,VWS V14.01,2013-03-22 14:37:00,
2013-03-22 08:42:00,59.2,22.5,29.67,North,0,1.5,0.0,24,0.00,,BKN250,0.00,VWS V14.01,2013-03-22 14:42:00,
2013-03-22 08:47:00,59.2,22.5,29.67,North,0,4.5,0.0,24,0.00,,BKN250,0.00,VWS V14.01,2013-03-22 14:47:00,
2013-03-22 08:52:00,59.2,26.1,29.67,North,0,4.5,0.0,28,0.00,,BKN250,0.00,VWS V14.01,2013-03-22 14:52:00,
2013-03-22 08:57:00,59.5,22.7,29.67,North,0,3.0,0.0,24,0.00,,BKN250,0.00,VWS V14.01,2013-03-22 14:57:00,
2013-03-22 09:02:00,59.9,22.0,29.67,North,0,3.0,0.0,23,0.00,,BKN250,0.00,VWS V14.01,2013-03-22 15:02:00,
2013-03-22 09:07:00,59.9,22.0,29.67,North,0,1.5,0.0,23,0.00,,BKN250,0.00,VWS V14.01,2013-03-22 15:07:00,
2013-03-22 09:12:00,60.7,21.7,29.67,North,0,1.5,0.0,22,0.00,,BKN250,0.00,VWS V14.01,2013-03-22 15:12:00,
2013-03-22 09:17:00,61.5,23.4,29.68,North,0,0.0,0.0,23,0.00,,BKN250,0.00,VWS V14.01,2013-03-22 15:17:00,
2013-03-22 09:22:00,62.6,22.1,29.68,North,0,0.0,0.0,21,0.00,,BKN250,0.00,VWS V14.01,2013-03-22 15:22:00,
2013-03-22 09:27:00,63.7,25.2,29.68,South,175,0.0,0.0,23,0.00,,BKN250,0.00,VWS V14.01,2013-03-22 15:27:00,
2013-03-22 09:32:00,64.5,26.9,29.68,North,0,4.5,0.0,24,0.00,,BKN250,0.00,VWS V14.01,2013-03-22 15:32:00,
2013-03-22 09:37:00,65.3,25.5,29.68,SW,236,15.0,0.0,22,0.00,,BKN250,0.00,VWS V14.01,2013-03-22 15:37:00,
2013-03-22 09:42:00,66.0,27.2,29.68,North,0,18.0,0.0,23,0.00,,BKN250,0.00,VWS V14.01,2013-03-22 15:42:00,
2013-03-22 09:47:00,66.1,29.3,29.67,North,0,10.5,0.0,25,0.00,,BKN250,0.00,VWS V14.01,2013-03-22 15:47:00,
2013-03-22 09:52:00,66.8,27.8,29.67,North,0,18.0,0.0,23,0.00,,BKN250,0.00,VWS V14.01,2013-03-22 15:52:00,
2013-03-22 09:57:00,66.9,29.0,29.67,SSW,200,16.5,0.0,24,0.00,,BKN250,0.00,VWS V14.01,2013-03-22 15:57:00,
2013-03-22 10:02:00,67.4,27.3,29.67,North,0,9.0,0.0,22,0.00,,BKN250,0.00,VWS V14.01,2013-03-22 16:02:00,
2013-03-22 10:07:00,67.9,27.7,29.67,North,0,19.5,0.0,22,0.00,,BKN250,0.00,VWS V14.01,2013-03-22 16:07:00,
2013-03-22 10:12:00,68.3,28.0,29.67,North,0,13.5,0.0,22,0.00,,BKN250,0.00,VWS V14.01,2013-03-22 16:12:00,
2013-03-22 10:17:00,68.9,26.2,29.67,North,0,12.0,0.0,20,0.00,,BKN250,0.00,VWS V14.01,2013-03-22 16:17:00,
2013-03-22 10:22:00,69.1,26.4,29.67,North,0,9.0,0.0,20,0.00,,BKN250,0.00,VWS V14.01,2013-03-22 16:22:00,
2013-03-22 10:27:00,69.1,26.4,29.67,North,0,6.0,0.0,20,0.00,,BKN250,0.00,VWS V14.01,2013-03-22 16:27:00,
2013-03-22 10:32:00,69.1,26.4,29.67,North,0,18.0,0.0,20,0.00,,BKN250,0.00,VWS V14.01,2013-03-22 16:32:00,
2013-03-22 10:37:00,68.6,24.7,29.67,North,0,15.0,0.0,19,0.00,,BKN250,0.00,VWS V14.01,2013-03-22 16:37:00,
2013-03-22 10:42:00,68.9,25.0,29.67,SW,222,25.5,0.0,19,0.00,,BKN250,0.00,VWS V14.01,2013-03-22 16:42:00,
2013-03-22 10:47:00,69.1,25.1,29.67,North,0,18.0,0.0,19,0.00,,BKN250,0.00,VWS V14.01,2013-03-22 16:47:00,
2013-03-22 10:52:00,69.6,22.9,29.67,North,0,16.5,0.0,17,0.00,,BKN250,0.00,VWS V14.01,2013-03-22 16:52:00,
2013-03-22 10:57:00,70.4,23.5,29.67,North,0,19.5,0.0,17,0.00,,BKN250,0.00,VWS V14.01,2013-03-22 16:57:00,
2013-03-22 11:02:00,71.5,23.0,29.67,West,267,15.0,0.0,16,0.00,,BKN250,0.00,VWS V14.01,2013-03-22 17:02:00,
2013-03-22 11:07:00,71.5,24.4,29.67,North,0,13.5,0.0,17,0.00,,BKN250,0.00,VWS V14.01,2013-03-22 17:07:00,
2013-03-22 11:12:00,71.3,24.3,29.67,North,0,18.0,0.0,17,0.00,,BKN250,0.00,VWS V14.01,2013-03-22 17:12:00,
2013-03-22 11:17:00,71.3,25.6,29.66,North,354,13.5,0.0,18,0.00,,BKN250,0.00,VWS V14.01,2013-03-22 17:17:00,
2013-03-22 11:22:00,70.8,23.9,29.66,WNW,283,13.5,0.0,17,0.00,,BKN250,0.00,VWS V14.01,2013-03-22 17:22:00,
2013-03-22 11:27:00,70.3,30.8,29.66,North,0,21.0,0.0,23,0.00,,BKN250,0.00,VWS V14.01,2013-03-22 17:27:00,
2013-03-22 11:32:00,70.3,23.5,29.66,North,0,7.5,0.0,17,0.00,,BKN250,0.00,VWS V14.01,2013-03-22 17:32:00,
2013-03-22 11:37:00,71.1,22.7,29.66,WSW,243,9.0,0.0,16,0.00,,BKN250,0.00,VWS V14.01,2013-03-22 17:37:00,
2013-03-22 11:42:00,72.0,23.4,29.66,North,0,21.0,0.0,16,0.00,,BKN250,0.00,VWS V14.01,2013-03-22 17:42:00,
2013-03-22 11:47:00,72.3,25.1,29.66,North,0,30.0,0.0,17,0.00,,BKN250,0.00,VWS V14.01,2013-03-22 17:47:00,
2013-03-22 11:52:00,71.6,23.1,29.66,North,0,24.0,0.0,16,0.00,,BKN250,0.00,VWS V14.01,2013-03-22 17:52:00,
2013-03-22 11:57:00,71.5,23.0,29.66,North,0,18.0,0.0,16,0.00,,BKN220,0.00,VWS V14.01,2013-03-22 17:57:00,
2013-03-22 12:02:00,72.7,22.4,29.66,North,0,15.0,0.0,15,0.00,,BKN220,0.00,VWS V14.01,2013-03-22 18:02:00,
2013-03-22 12:07:00,73.3,21.3,29.66,North,0,21.0,0.0,14,0.00,,BKN220,0.00,VWS V14.01,2013-03-22 18:07:00,
2013-03-22 12:12:00,73.3,22.9,29.66,North,0,19.5,0.0,15,0.00,,BKN220,0.00,VWS V14.01,2013-03-22 18:12:00,
2013-03-22 12:17:00,73.2,19.5,29.65,North,0,27.0,0.0,13,0.00,,BKN220,0.00,VWS V14.01,2013-03-22 18:17:00,
2013-03-22 12:22:00,72.3,18.7,29.65,North,0,15.0,0.0,13,0.00,,BKN220,0.00,VWS V14.01,2013-03-22 18:22:00,
2013-03-22 12:27:00,72.8,19.1,29.65,North,0,27.0,0.0,13,0.00,,BKN220,0.00,VWS V14.01,2013-03-22 18:27:00,
2013-03-22 12:32:00,73.3,19.5,29.65,North,0,19.5,0.0,13,0.00,,BKN220,0.00,VWS V14.01,2013-03-22 18:32:00,
2013-03-22 12:37:00,73.0,21.0,29.65,North,0,9.0,0.0,14,0.00,,BKN220,0.00,VWS V14.01,2013-03-22 18:37:00,
2013-03-22 12:42:00,73.5,17.8,29.65,SSW,212,18.0,0.0,12,0.00,,BKN220,0.00,VWS V14.01,2013-03-22 18:42:00,
2013-03-22 12:47:00,73.7,21.6,29.64,North,0,9.0,0.0,14,0.00,,BKN220,0.00,VWS V14.01,2013-03-22 18:47:00,
2013-03-22 12:52:00,72.7,20.8,29.64,North,0,22.5,0.0,14,0.00,,BKN220,0.00,VWS V14.01,2013-03-22 18:52:00,
2013-03-22 12:57:00,71.8,20.1,29.64,North,0,18.0,0.0,14,0.00,,BKN250,0.00,VWS V14.01,2013-03-22 18:57:00,
2013-03-22 13:02:00,71.5,21.5,29.63,North,0,13.5,0.0,15,0.00,,BKN250,0.00,VWS V14.01,2013-03-22 19:02:00,
2013-03-22 13:07:00,71.5,23.0,29.63,North,0,15.0,0.0,16,0.00,,BKN250,0.00,VWS V14.01,2013-03-22 19:07:00,
2013-03-22 13:12:00,72.3,22.1,29.63,North,0,16.5,0.0,15,0.00,,BKN250,0.00,VWS V14.01,2013-03-22 19:12:00,
2013-03-22 13:17:00,73.5,19.7,29.62,North,0,9.0,0.0,13,0.00,,BKN250,0.00,VWS V14.01,2013-03-22 19:17:00,
2013-03-22 13:22:00,74.0,20.1,29.62,North,0,28.5,0.0,13,0.00,,BKN250,0.00,VWS V14.01,2013-03-22 19:22:00,
2013-03-22 13:27:00,74.6,20.5,29.62,North,0,19.5,0.0,13,0.00,,BKN250,0.00,VWS V14.01,2013-03-22 19:27:00,
2013-03-22 13:32:00,74.9,20.8,29.61,SW,229,16.5,0.0,13,0.00,,BKN250,0.00,VWS V14.01,2013-03-22 19:32:00,
2013-03-22 13:37:00,74.6,23.9,29.61,North,0,22.5,0.0,15,0.00,,BKN250,0.00,VWS V14.01,2013-03-22 19:37:00,
2013-03-22 13:42:00,73.9,23.4,29.61,WSW,245,12.0,0.0,15,0.00,,BKN250,0.00,VWS V14.01,2013-03-22 19:42:00,
2013-03-22 13:47:00,73.5,19.7,29.61,North,0,25.5,0.0,13,0.00,,BKN250,0.00,VWS V14.01,2013-03-22 19:47:00,
2013-03-22 13:52:00,74.0,25.0,29.61,North,0,22.5,0.0,16,0.00,,BKN250,0.00,VWS V14.01,2013-03-22 19:52:00,
2013-03-22 13:57:00,73.9,27.8,29.61,North,0,25.5,0.0,18,0.00,,SCT250,0.00,VWS V14.01,2013-03-22 19:57:00,
2013-03-22 14:02:00,74.0,23.5,29.60,North,0,12.0,0.0,15,0.00,,SCT250,0.00,VWS V14.01,2013-03-22 20:02:00,
2013-03-22 14:07:00,73.7,24.8,29.60,North,0,18.0,0.0,16,0.00,,SCT250,0.00,VWS V14.01,2013-03-22 20:07:00,
2013-03-22 14:12:00,74.6,23.9,29.60,North,0,16.5,0.0,15,0.00,,SCT250,0.00,VWS V14.01,2013-03-22 20:12:00,
2013-03-22 14:17:00,75.3,22.9,29.58,North,0,28.5,0.0,14,0.00,,SCT250,0.00,VWS V14.01,2013-03-22 20:17:00,
2013-03-22 14:22:00,75.8,24.9,29.58,North,0,10.5,0.0,15,0.00,,SCT250,0.00,VWS V14.01,2013-03-22 20:22:00,
2013-03-22 14:27:00,76.0,23.4,29.58,North,0,9.0,0.0,14,0.00,,SCT250,0.00,VWS V14.01,2013-03-22 20:27:00,
2013-03-22 14:32:00,76.0,25.1,29.58,North,0,15.0,0.0,15,0.00,,SCT250,0.00,VWS V14.01,2013-03-22 20:32:00,
2013-03-22 14:37:00,75.6,23.1,29.58,North,0,21.0,0.0,14,0.00,,SCT250,0.00,VWS V14.01,2013-03-22 20:37:00,
2013-03-22 14:42:00,75.8,24.9,29.58,North,0,7.5,0.0,15,0.00,,SCT250,0.00,VWS V14.01,2013-03-22 20:42:00,
2013-03-22 14:47:00,76.1,21.7,29.57,SW,226,10.5,0.0,13,0.00,,SCT250,0.00,VWS V14.01,2013-03-22 20:47:00,
2013-03-22 14:52:00,76.3,23.6,29.57,North,0,22.5,0.0,14,0.00,,SCT250,0.00,VWS V14.01,2013-03-22 20:52:00,
2013-03-22 14:57:00,75.3,22.9,29.57,North,0,28.5,0.0,14,0.00,,SCT250,0.00,VWS V14.01,2013-03-22 20:57:00,
2013-03-22 15:02:00,75.4,24.6,29.57,North,0,21.0,0.0,15,0.00,,SCT250,0.00,VWS V14.01,2013-03-22 21:02:00,
2013-03-22 15:07:00,75.8,24.9,29.57,SW,224,16.5,0.0,15,0.00,,SCT250,0.00,VWS V14.01,2013-03-22 21:07:00,
2013-03-22 15:12:00,75.4,22.9,29.57,North,0,25.5,0.0,14,0.00,,SCT250,0.00,VWS V14.01,2013-03-22 21:12:00,
2013-03-22 15:17:00,76.8,25.7,29.55,North,0,24.0,0.0,15,0.00,,SCT250,0.00,VWS V14.01,2013-03-22 21:17:00,
2013-03-22 15:22:00,76.8,24.0,29.55,North,0,18.0,0.0,14,0.00,,SCT250,0.00,VWS V14.01,2013-03-22 21:22:00,
2013-03-22 15:27:00,77.2,26.0,29.55,North,0,18.0,0.0,15,0.00,,SCT250,0.00,VWS V14.01,2013-03-22 21:27:00,
2013-03-22 15:32:00,77.6,26.3,29.55,North,0,19.5,0.0,15,0.00,,SCT250,0.00,VWS V14.01,2013-03-22 21:32:00,
2013-03-22 15:37:00,77.2,26.0,29.55,North,0,19.5,0.0,15,0.00,,SCT250,0.00,VWS V14.01,2013-03-22 21:37:00,
2013-03-22 15:42:00,76.1,25.1,29.55,North,0,9.0,0.0,15,0.00,,SCT250,0.00,VWS V14.01,2013-03-22 21:42:00,
2013-03-22 15:47:00,76.0,26.6,29.54,North,0,6.0,0.0,16,0.00,,SCT250,0.00,VWS V14.01,2013-03-22 21:47:00,
2013-03-22 15:52:00,76.0,25.1,29.54,North,0,9.0,0.0,15,0.00,,SCT250,0.00,VWS V14.01,2013-03-22 21:52:00,
2013-03-22 15:57:00,75.8,24.9,29.54,North,0,24.0,0.0,15,0.00,,BKN110,0.00,VWS V14.01,2013-03-22 21:57:00,
2013-03-22 16:02:00,75.6,24.7,29.53,North,0,7.5,0.0,15,0.00,,BKN110,0.00,VWS V14.01,2013-03-22 22:02:00,
2013-03-22 16:07:00,75.6,26.3,29.53,North,0,7.5,0.0,16,0.00,,BKN110,0.00,VWS V14.01,2013-03-22 22:07:00,
2013-03-22 16:12:00,75.8,26.5,29.53,North,0,21.0,0.0,16,0.00,,BKN110,0.00,VWS V14.01,2013-03-22 22:12:00,
2013-03-22 16:17:00,76.5,27.0,29.53,North,0,27.0,0.0,16,0.00,,BKN110,0.00,VWS V14.01,2013-03-22 22:17:00,
2013-03-22 16:22:00,76.5,25.5,29.53,North,0,19.5,0.0,15,0.00,,BKN110,0.00,VWS V14.01,2013-03-22 22:22:00,
2013-03-22 16:27:00,76.5,25.5,29.53,North,0,16.5,0.0,15,0.00,,BKN110,0.00,VWS V14.01,2013-03-22 22:27:00,
2013-03-22 16:32:00,76.3,25.3,29.53,North,0,6.0,0.0,15,0.00,,BKN110,0.00,VWS V14.01,2013-03-22 22:32:00,
2013-03-22 16:37:00,77.4,27.7,29.53,North,0,24.0,0.0,16,0.00,,BKN110,0.00,VWS V14.01,2013-03-22 22:37:00,
2013-03-22 16:42:00,77.9,26.6,29.53,North,0,18.0,0.0,15,0.00,,BKN110,0.00,VWS V14.01,2013-03-22 22:42:00,
2013-03-22 16:47:00,77.7,26.4,29.52,North,0,10.5,0.0,15,0.00,,BKN110,0.00,VWS V14.01,2013-03-22 22:47:00,
2013-03-22 16:52:00,77.9,26.6,29.52,North,0,16.5,0.0,15,0.00,,BKN110,0.00,VWS V14.01,2013-03-22 22:52:00,
2013-03-22 16:57:00,78.1,25.1,29.52,North,0,19.5,0.0,14,0.00,,SCT110,0.00,VWS V14.01,2013-03-22 22:57:00,
2013-03-22 17:02:00,78.3,25.2,29.52,North,0,33.0,0.0,14,0.00,,SCT110,0.00,VWS V14.01,2013-03-22 23:02:00,
2013-03-22 17:07:00,78.1,25.1,29.52,North,0,7.5,0.0,14,0.00,,SCT110,0.00,VWS V14.01,2013-03-22 23:07:00,
2013-03-22 17:12:00,78.5,25.4,29.52,North,0,16.5,0.0,14,0.00,,SCT110,0.00,VWS V14.01,2013-03-22 23:12:00,
2013-03-22 17:17:00,78.3,25.2,29.52,North,0,15.0,0.0,14,0.00,,SCT110,0.00,VWS V14.01,2013-03-22 23:17:00,
2013-03-22 17:22:00,78.1,25.1,29.52,NW,319,4.5,0.0,14,0.00,,SCT110,0.00,VWS V14.01,2013-03-22 23:22:00,
2013-03-22 17:27:00,77.9,24.9,29.52,North,0,7.5,0.0,14,0.00,,SCT110,0.00,VWS V14.01,2013-03-22 23:27:00,
2013-03-22 17:32:00,77.6,24.7,29.52,North,0,18.0,0.0,14,0.00,,SCT110,0.00,VWS V14.01,2013-03-22 23:32:00,
2013-03-22 17:37:00,77.4,26.2,29.52,North,0,25.5,0.0,15,0.00,,SCT110,0.00,VWS V14.01,2013-03-22 23:37:00,
2013-03-22 17:42:00,77.2,26.0,29.52,North,0,34.5,0.0,15,0.00,,SCT110,0.00,VWS V14.01,2013-03-22 23:42:00,
2013-03-22 17:47:00,77.0,25.9,29.52,North,0,19.5,0.0,15,0.00,,SCT110,0.00,VWS V14.01,2013-03-22 23:47:00,
2013-03-22 17:52:00,76.8,25.7,29.52,North,0,15.0,0.0,15,0.00,,SCT110,0.00,VWS V14.01,2013-03-22 23:52:00,
2013-03-22 17:57:00,76.7,25.6,29.52,North,0,9.0,0.0,15,0.00,,FEW110,0.00,VWS V14.01,2013-03-22 23:57:00,
2013-03-22 18:02:00,76.5,27.0,29.52,North,0,19.5,0.0,16,0.00,,FEW110,0.00,VWS V14.01,2013-03-23 00:02:00,
2013-03-22 18:07:00,76.3,26.9,29.52,North,0,18.0,0.0,16,0.00,,FEW110,0.00,VWS V14.01,2013-03-23 00:07:00,
2013-03-22 18:12:00,76.3,26.9,29.52,North,0,10.5,0.0,16,0.00,,FEW110,0.00,VWS V14.01,2013-03-23 00:12:00,
2013-03-22 18:17:00,75.8,26.5,29.53,North,0,13.5,0.0,16,0.00,,FEW110,0.00,VWS V14.01,2013-03-23 00:17:00,
2013-03-22 18:22:00,75.4,26.1,29.53,North,0,18.0,0.0,16,0.00,,FEW110,0.00,VWS V14.01,2013-03-23 00:22:00,
2013-03-22 18:27:00,75.3,27.5,29.53,North,0,15.0,0.0,17,0.00,,FEW110,0.00,VWS V14.01,2013-03-23 00:27:00,
2013-03-22 18:32:00,75.1,25.9,29.53,WNW,300,10.5,0.0,16,0.00,,FEW110,0.00,VWS V14.01,2013-03-23 00:32:00,
2013-03-22 18:37:00,75.1,25.9,29.53,North,0,10.5,0.0,16,0.00,,FEW110,0.00,VWS V14.01,2013-03-23 00:37:00,
2013-03-22 18:42:00,74.9,25.7,29.53,North,0,10.5,0.0,16,0.00,,FEW110,0.00,VWS V14.01,2013-03-23 00:42:00,
2013-03-22 18:47:00,74.7,25.6,29.54,North,0,22.5,0.0,16,0.00,,FEW110,0.00,VWS V14.01,2013-03-23 00:47:00,
2013-03-22 18:52:00,74.6,25.5,29.54,North,0,13.5,0.0,16,0.00,,FEW110,0.00,VWS V14.01,2013-03-23 00:52:00,
2013-03-22 18:57:00,74.4,23.8,29.54,North,0,19.5,0.0,15,0.00,,FEW110,0.00,VWS V14.01,2013-03-23 00:57:00,
2013-03-22 19:02:00,74.2,23.6,29.54,North,0,4.5,0.0,15,0.00,,FEW110,0.00,VWS V14.01,2013-03-23 01:02:00,
2013-03-22 19:07:00,74.0,23.5,29.54,North,0,15.0,0.0,15,0.00,,FEW110,0.00,VWS V14.01,2013-03-23 01:07:00,
2013-03-22 19:12:00,73.9,23.4,29.54,North,0,24.0,0.0,15,0.00,,FEW110,0.00,VWS V14.01,2013-03-23 01:12:00,
2013-03-22 19:17:00,73.7,24.8,29.55,North,0,9.0,0.0,16,0.00,,FEW110,0.00,VWS V14.01,2013-03-23 01:17:00,
2013-03-22 19:22:00,73.5,23.1,29.55,North,0,19.5,0.0,15,0.00,,FEW110,0.00,VWS V14.01,2013-03-23 01:22:00,
2013-03-22 19:27:00,73.3,24.4,29.55,North,0,18.0,0.0,16,0.00,,FEW110,0.00,VWS V14.01,2013-03-23 01:27:00,
2013-03-22 19:32:00,73.2,24.4,29.55,North,0,19.5,0.0,16,0.00,,FEW110,0.00,VWS V14.01,2013-03-23 01:32:00,
2013-03-22 19:37:00,73.2,24.4,29.55,North,0,13.5,0.0,16,0.00,,FEW110,0.00,VWS V14.01,2013-03-23 01:37:00,
2013-03-22 19:42:00,73.0,24.2,29.55,North,0,9.0,0.0,16,0.00,,FEW110,0.00,VWS V14.01,2013-03-23 01:42:00,
2013-03-22 19:47:00,72.8,24.0,29.55,North,0,18.0,0.0,16,0.00,,FEW110,0.00,VWS V14.01,2013-03-23 01:47:00,
2013-03-22 19:52:00,72.8,24.0,29.55,North,0,9.0,0.0,16,0.00,,FEW110,0.00,VWS V14.01,2013-03-23 01:52:00,
2013-03-22 19:57:00,72.8,24.0,29.55,North,0,27.0,0.0,16,0.00,,FEW120,0.00,VWS V14.01,2013-03-23 01:57:00,
2013-03-22 20:02:00,72.7,24.0,29.56,North,0,19.5,0.0,16,0.00,,FEW120,0.00,VWS V14.01,2013-03-23 02:02:00,
2013-03-22 20:07:00,72.7,24.0,29.56,WSW,241,3.0,0.0,16,0.00,,FEW120,0.00,VWS V14.01,2013-03-23 02:07:00,
2013-03-22 20:12:00,72.5,23.8,29.56,North,0,6.0,0.0,16,0.00,,FEW120,0.00,VWS V14.01,2013-03-23 02:12:00,
2013-03-22 20:17:00,72.1,23.5,29.57,SW,233,6.0,0.0,16,0.00,,FEW120,0.00,VWS V14.01,2013-03-23 02:17:00,
2013-03-22 20:22:00,72.1,23.5,29.57,WSW,238,7.5,0.0,16,0.00,,FEW120,0.00,VWS V14.01,2013-03-23 02:22:00,
2013-03-22 20:27:00,72.1,23.5,29.57,SSW,210,18.0,0.0,16,0.00,,FEW120,0.00,VWS V14.01,2013-03-23 02:27:00,
2013-03-22 20:32:00,72.1,21.9,29.57,SSW,212,7.5,0.0,15,0.00,,FEW120,0.00,VWS V14.01,2013-03-23 02:32:00,
2013-03-22 20:37:00,72.0,23.4,29.57,North,0,12.0,0.0,16,0.00,,FEW120,0.00,VWS V14.01,2013-03-23 02:37:00,
2013-03-22 20:42:00,71.8,21.7,29.57,SSW,208,4.5,0.0,15,0.00,,FEW120,0.00,VWS V14.01,2013-03-23 02:42:00,
2013-03-22 20:47:00,71.5,21.5,29.58,North,0,13.5,0.0,15,0.00,,FEW120,0.00,VWS V14.01,2013-03-23 02:47:00,
2013-03-22 20:52:00,71.1,21.1,29.58,WSW,241,6.0,0.0,15,0.00,,FEW120,0.00,VWS V14.01,2013-03-23 02:52:00,
2013-03-22 20:57:00,70.9,21.0,29.58,SW,233,9.0,0.0,15,0.00,,FEW120,0.00,VWS V14.01,2013-03-23 02:57:00,
2013-03-22 21:02:00,70.6,20.7,29.58,WSW,245,13.5,0.0,15,0.00,,FEW120,0.00,VWS V14.01,2013-03-23 03:02:00,
2013-03-22 21:07:00,70.6,20.7,29.58,SSW,213,7.5,0.0,15,0.00,,FEW120,0.00,VWS V14.01,2013-03-23 03:07:00,
2013-03-22 21:12:00,70.3,20.5,29.58,WSW,237,7.5,0.0,15,0.00,,FEW120,0.00,VWS V14.01,2013-03-23 03:12:00,
2013-03-22 21:17:00,70.1,20.3,29.59,North,0,4.5,0.0,15,0.00,,FEW120,0.00,VWS V14.01,2013-03-23 03:17:00,
2013-03-22 21:22:00,70.1,20.3,29.59,North,0,7.5,0.0,15,0.00,,FEW120,0.00,VWS V14.01,2013-03-23 03:22:00,
2013-03-22 21:27:00,69.9,20.2,29.59,WSW,241,10.5,0.0,15,0.00,,FEW120,0.00,VWS V14.01,2013-03-23 03:27:00,
2013-03-22 21:32:00,69.9,20.2,29.60,SW,234,10.5,0.0,15,0.00,,FEW120,0.00,VWS V14.01,2013-03-23 03:32:00,
2013-03-22 21:37:00,69.9,20.2,29.60,North,0,18.0,0.0,15,0.00,,FEW120,0.00,VWS V14.01,2013-03-23 03:37:00,
2013-03-22 21:42:00,69.9,20.2,29.60,North,0,10.5,0.0,15,0.00,,FEW120,0.00,VWS V14.01,2013-03-23 03:42:00,
2013-03-22 21:47:00,69.6,19.9,29.60,North,0,7.5,0.0,15,0.00,,FEW120,0.00,VWS V14.01,2013-03-23 03:47:00,
2013-03-22 21:52:00,69.1,21.1,29.60,North,0,13.5,0.0,16,0.00,,FEW120,0.00,VWS V14.01,2013-03-23 03:52:00,
2013-03-22 21:57:00,68.9,20.9,29.60,North,0,7.5,0.0,16,0.00,,FEW120,0.00,VWS V14.01,2013-03-23 03:57:00,
2013-03-22 22:00:00,68.8,20.8,29.60,North,0,6.0,0.0,16,0.00,,FEW120,0.00,VWS V14.01,2013-03-23 04:00:00,
2013-03-22 22:05:00,68.6,20.6,29.61,West,280,7.5,0.0,16,0.00,,FEW120,0.00,VWS V14.01,2013-03-23 04:05:00,
2013-03-22 22:10:00,68.4,20.5,29.61,West,271,6.0,0.0,16,0.00,,FEW120,0.00,VWS V14.01,2013-03-23 04:10:00,
2013-03-22 22:15:00,68.3,18.9,29.61,North,0,9.0,0.0,15,0.00,,FEW120,0.00,VWS V14.01,2013-03-23 04:15:00,
2013-03-22 22:20:00,68.1,20.2,29.62,North,0,12.0,0.0,16,0.00,,FEW120,0.00,VWS V14.01,2013-03-23 04:20:00,
2013-03-22 22:25:00,67.9,20.1,29.62,North,0,6.0,0.0,16,0.00,,FEW120,0.00,VWS V14.01,2013-03-23 04:25:00,
2013-03-22 22:30:00,67.6,19.9,29.62,North,0,6.0,0.0,16,0.00,,FEW120,0.00,VWS V14.01,2013-03-23 04:30:00,
2013-03-22 22:35:00,67.3,19.6,29.63,WSW,238,4.5,0.0,16,0.00,,FEW120,0.00,VWS V14.01,2013-03-23 04:35:00,
2013-03-22 22:40:00,66.9,19.3,29.63,North,0,3.0,0.0,16,0.00,,FEW120,0.00,VWS V14.01,2013-03-23 04:40:00,
2013-03-22 22:45:00,66.8,19.2,29.63,North,0,7.5,0.0,16,0.00,,FEW120,0.00,VWS V14.01,2013-03-23 04:45:00,
2013-03-22 22:50:00,66.4,18.9,29.63,North,0,3.0,0.0,16,0.00,,FEW120,0.00,VWS V14.01,2013-03-23 04:50:00,
2013-03-22 22:55:00,66.3,18.8,29.63,North,0,7.5,0.0,16,0.00,,FEW120,0.00,VWS V14.01,2013-03-23 04:55:00,
2013-03-22 23:00:00,66.3,18.8,29.63,SW,221,7.5,0.0,16,0.00,,FEW120,0.00,VWS V14.01,2013-03-23 05:00:00,
2013-03-22 23:05:00,66.1,18.6,29.64,North,0,4.5,0.0,16,0.00,,FEW120,0.00,VWS V14.01,2013-03-23 05:05:00,
2013-03-22 23:10:00,66.0,18.5,29.64,WSW,248,3.0,0.0,16,0.00,,FEW120,0.00,VWS V14.01,2013-03-23 05:10:00,
2013-03-22 23:15:00,65.6,19.6,29.64,North,0,7.5,0.0,17,0.00,,FEW120,0.00,VWS V14.01,2013-03-23 05:15:00,
2013-03-22 23:20:00,65.5,18.1,29.64,West,271,9.0,0.0,16,0.00,,FEW120,0.00,VWS V14.01,2013-03-23 05:20:00,
2013-03-22 23:25:00,65.5,18.1,29.64,North,0,10.5,0.0,16,0.00,,FEW120,0.00,VWS V14.01,2013-03-23 05:25:00,
2013-03-22 23:30:00,65.6,16.7,29.64,WSW,245,9.0,0.0,15,0.00,,FEW120,0.00,VWS V14.01,2013-03-23 05:30:00,
2013-03-22 23:35:00,65.8,18.4,29.64,North,0,7.5,0.0,16,0.00,,FEW120,0.00,VWS V14.01,2013-03-23 05:35:00,
2013-03-22 23:40:00,65.6,18.2,29.64,SW,229,4.5,0.0,16,0.00,,FEW120,0.00,VWS V14.01,2013-03-23 05:40:00,
2013-03-22 23:45:00,65.6,18.2,29.64,North,0,6.0,0.0,16,0.00,,FEW120,0.00,VWS V14.01,2013-03-23 05:45:00,
2013-03-22 23:50:00,65.8,18.4,29.64,West,268,4.5,0.0,16,0.00,,FEW120,0.00,VWS V14.01,2013-03-23 05:50:00,
2013-03-22 23:55:00,65.6,19.6,29.64,North,0,16.5,0.0,17,0.00,,FEW120,0.00,VWS V14.01,2013-03-23 05:55:00,